| time (UTC) | temp C | wind direction | speed KPH | gust KPH | rain 1hr cm | rain 24hr cm | rain mn cm | humidity % | barometer mb |
| 20260831051007 | 15 | 127 | 14.5 | 16.1 | 0.05 | 0.05 | 0.05 | 78 | 1021.9 |
| 20260831050505 | 16 | 296 | 3.2 | 8.0 | 0.05 | 0.05 | 0.05 | 74 | 1022.7 |
| 20260831050006 | 16 | 296 | 4.8 | 9.7 | 0.03 | 0.03 | 0.03 | 72 | 1022.6 |
| 20260831050004 | 16 | 296 | 4.8 | 9.7 | 0.03 | 0.03 | 0.03 | 72 | 1008.2 |
| 20260831045504 | 17 | 199 | 1.6 | 17.7 | 0.00 | 0.00 | 0.00 | 68 | 1023.3 |
| 20260831045005 | 17 | 249 | 4.8 | 22.5 | 0.00 | 0.00 | 0.00 | 64 | 1023.4 |
| 20260831044506 | 17 | 203 | 8.0 | 20.9 | 0.00 | 0.00 | 0.00 | 61 | 1023.4 |
| 20260831044504 | 17 | 203 | 8.0 | 20.9 | 0.00 | 0.00 | 0.00 | 61 | 1009.1 |
| 20260831044006 | 17 | 257 | 11.3 | 22.5 | 0.00 | 0.00 | 0.00 | 60 | 1023.2 |
| 20260831043506 | 17 | 240 | 8.0 | 22.5 | 0.00 | 0.00 | 0.00 | 63 | 1022.9 |
| 20260831043003 | 17 | 192 | 9.7 | 17.7 | 0.00 | 0.00 | 0.00 | 63 | 1008.1 |
| 20260831042505 | 16 | 226 | 9.7 | 16.1 | 0.00 | 0.00 | 0.00 | 67 | 1022.2 |
| 20260831041506 | 16 | 186 | 4.8 | 12.9 | 0.00 | 0.00 | 0.00 | 68 | 1021.7 |
| 20260831041504 | 16 | 186 | 4.8 | 12.9 | 0.00 | 0.00 | 0.00 | 68 | 1007.2 |
| 20260831041006 | 16 | 191 | 6.4 | 12.9 | 0.00 | 0.00 | 0.00 | 71 | 1021.6 |
| 20260831040505 | 15 | 184 | 4.8 | 8.0 | 0.00 | 0.00 | 0.00 | 73 | 1021.5 |
| 20260831040008 | 15 | 184 | 1.6 | 6.4 | 0.00 | 0.00 | 0.00 | 74 | 1021.5 |
| 20260831040004 | 15 | 184 | 1.6 | 6.4 | 0.00 | 0.00 | 0.00 | 74 | 1007.0 |
| 20260831035505 | 15 | 184 | 4.8 | 6.4 | 0.00 | 0.00 | 0.00 | 74 | 1021.5 |
| 20260831035006 | 15 | 184 | 3.2 | 6.4 | 0.00 | 0.00 | 0.00 | 74 | 1021.6 |
| 20260831034505 | 16 | 223 | 1.6 | 6.4 | 0.00 | 0.00 | 0.00 | 74 | 1021.5 |
| 20260831034007 | 16 | 223 | 3.2 | 6.4 | 0.00 | 0.00 | 0.00 | 74 | 1021.5 |
| 20260831033505 | 16 | 200 | 3.2 | 8.0 | 0.00 | 0.00 | 0.00 | 73 | 1021.4 |
| 20260831033006 | 16 | 200 | 3.2 | 8.0 | 0.00 | 0.00 | 0.00 | 74 | 1021.4 |
| 20260831033004 | 16 | 200 | 3.2 | 8.0 | 0.00 | 0.00 | 0.00 | 74 | 1006.9 |
| 20260831032505 | 16 | 200 | 3.2 | 6.4 | 0.00 | 0.00 | 0.00 | 74 | 1021.3 |
| 20260831032007 | 16 | 200 | 4.8 | 6.4 | 0.00 | 0.00 | 0.00 | 74 | 1021.2 |
| 20260831031505 | 16 | 200 | 3.2 | 6.4 | 0.00 | 0.00 | 0.00 | 75 | 1021.3 |
| 20260831031503 | 16 | 200 | 3.2 | 6.4 | 0.00 | 0.00 | 0.00 | 75 | 1006.8 |
| 20260831030505 | 16 | 204 | 3.2 | 8.0 | 0.00 | 0.00 | 0.00 | 76 | 1021.3 |
| 20260831030008 | 16 | 204 | 4.8 | 8.0 | 0.00 | 0.00 | 0.00 | 76 | 1021.3 |
| 20260831030005 | 16 | 204 | 3.2 | 8.0 | 0.00 | 0.00 | 0.00 | 76 | 1006.8 |
| 20260831025505 | 16 | 204 | 1.6 | 8.0 | 0.00 | 0.00 | 0.00 | 76 | 1021.1 |
| 20260831025005 | 16 | 204 | 3.2 | 8.0 | 0.00 | 0.00 | 0.00 | 76 | 1021.0 |
| 20260831024505 | 16 | 204 | 3.2 | 4.8 | 0.00 | 0.00 | 0.00 | 75 | 1020.8 |
| 20260831024005 | 16 | 204 | 1.6 | 6.4 | 0.00 | 0.00 | 0.00 | 75 | 1020.7 |
| 20260831023504 | 16 | 204 | 1.6 | 6.4 | 0.00 | 0.00 | 0.00 | 75 | 1020.7 |
| 20260831023004 | 16 | 204 | 1.6 | 4.8 | 0.00 | 0.00 | 0.00 | 76 | 1006.2 |
| 20260831022505 | 16 | 204 | 3.2 | 4.8 | 0.00 | 0.00 | 0.00 | 77 | 1020.6 |
| 20260831022006 | 16 | 204 | 1.6 | 4.8 | 0.00 | 0.00 | 0.00 | 77 | 1020.3 |
| 20260831021505 | 16 | 204 | 1.6 | 4.8 | 0.00 | 0.00 | 0.00 | 75 | 1020.3 |
| 20260831021503 | 16 | 204 | 1.6 | 4.8 | 0.00 | 0.00 | 0.00 | 75 | 1005.7 |
| 20260831021006 | 16 | 204 | 0.0 | 3.2 | 0.00 | 0.00 | 0.00 | 74 | 1020.1 |
| 20260831020505 | 16 | 204 | 1.6 | 3.2 | 0.00 | 0.00 | 0.00 | 73 | 1020.1 |
| 20260831020007 | 16 | 204 | 1.6 | 3.2 | 0.00 | 0.00 | 0.00 | 74 | 1020.1 |
| 20260831020004 | 16 | 204 | 0.0 | 3.2 | 0.00 | 0.00 | 0.00 | 74 | 1005.5 |
| 20260831015505 | 16 | 204 | 1.6 | 3.2 | 0.00 | 0.00 | 0.00 | 75 | 1020.0 |
| 20260831015005 | 16 | 204 | 1.6 | 3.2 | 0.00 | 0.00 | 0.00 | 74 | 1019.9 |
| 20260831014505 | 16 | 204 | 1.6 | 4.8 | 0.00 | 0.00 | 0.00 | 73 | 1019.9 |
| 20260831014006 | 17 | 204 | 1.6 | 4.8 | 0.00 | 0.00 | 0.00 | 73 | 1019.8 |
| 20260831013504 | 17 | 204 | 3.2 | 4.8 | 0.00 | 0.00 | 0.00 | 72 | 1019.9 |
| 20260831013004 | 17 | 204 | 1.6 | 4.8 | 0.00 | 0.00 | 0.00 | 71 | 1005.2 |
| 20260831012505 | 17 | 204 | 1.6 | 3.2 | 0.00 | 0.00 | 0.00 | 71 | 1019.9 |
| 20260831012006 | 17 | 204 | 1.6 | 4.8 | 0.00 | 0.00 | 0.00 | 71 | 1019.9 |
| 20260831011504 | 17 | 204 | 1.6 | 8.0 | 0.00 | 0.00 | 0.00 | 71 | 1020.0 |
| 20260831011006 | 17 | 204 | 4.8 | 8.0 | 0.00 | 0.00 | 0.00 | 71 | 1020.0 |
| 20260831010506 | 17 | 204 | 3.2 | 9.7 | 0.00 | 0.00 | 0.00 | 70 | 1020.1 |
| 20260831010007 | 17 | 204 | 3.2 | 9.7 | 0.00 | 0.00 | 0.00 | 70 | 1020.1 |
| 20260831010004 | 17 | 204 | 3.2 | 9.7 | 0.00 | 0.00 | 0.00 | 70 | 1005.4 |
| 20260831005504 | 17 | 234 | 3.2 | 8.0 | 0.00 | 0.00 | 0.00 | 70 | 1020.2 |
| 20260831004505 | 17 | 200 | 3.2 | 4.8 | 0.00 | 0.00 | 0.00 | 71 | 1020.1 |
| 20260831004503 | 17 | 200 | 3.2 | 4.8 | 0.00 | 0.00 | 0.00 | 71 | 1005.4 |
| 20260831004006 | 17 | 200 | 3.2 | 8.0 | 0.00 | 0.00 | 0.00 | 70 | 1020.3 |
| 20260831003003 | 17 | 183 | 3.2 | 6.4 | 0.00 | 0.00 | 0.00 | 70 | 1005.6 |
| 20260831002505 | 17 | 325 | 3.2 | 6.4 | 0.00 | 0.00 | 0.00 | 70 | 1020.4 |
| 20260831002006 | 17 | 325 | 3.2 | 3.2 | 0.00 | 0.00 | 0.00 | 71 | 1020.5 |
| 20260831001505 | 17 | 325 | 0.0 | 3.2 | 0.00 | 0.00 | 0.00 | 71 | 1020.5 |
| 20260831001006 | 17 | 325 | 1.6 | 16.1 | 0.00 | 0.00 | 0.00 | 71 | 1020.4 |
| 20260831000507 | 17 | 325 | 6.4 | 17.7 | 0.00 | 0.00 | 0.00 | 71 | 1020.5 |
| 20260831000007 | 17 | 299 | 9.7 | 17.7 | 0.00 | 0.00 | 0.00 | 70 | 1021.0 |
| 20260831000005 | 17 | 299 | 8.0 | 17.7 | 0.00 | 0.00 | 0.00 | 70 | 1006.0 |
| 20260830235505 | 17 | 117 | 4.8 | 9.7 | 0.00 | 0.00 | 0.00 | 70 | 1021.1 |
| 20260830234506 | 16 | 90 | 4.8 | 6.4 | 0.00 | 0.00 | 0.00 | 74 | 1020.8 |
| 20260830234504 | 16 | 90 | 3.2 | 6.4 | 0.00 | 0.00 | 0.00 | 74 | 1005.8 |
| 20260830234005 | 16 | 320 | 0.0 | 4.8 | 0.00 | 0.00 | 0.00 | 73 | 1020.9 |
| 20260830233505 | 16 | 320 | 3.2 | 6.4 | 0.00 | 0.00 | 0.00 | 74 | 1021.0 |
| 20260830233006 | 16 | 320 | 3.2 | 9.7 | 0.00 | 0.00 | 0.00 | 74 | 1021.1 |
| 20260830233003 | 16 | 320 | 1.6 | 9.7 | 0.00 | 0.00 | 0.00 | 74 | 1006.1 |
| 20260830232504 | 16 | 346 | 4.8 | 9.7 | 0.00 | 0.00 | 0.00 | 73 | 1021.2 |
| 20260830232002 | 16 | 305 | 3.2 | 8.0 | 0.00 | 0.00 | 0.00 | 73 | 1021.3 |
| 20260830231505 | 16 | 305 | 3.2 | 12.9 | 0.00 | 0.00 | 0.00 | 72 | 1006.2 |
| 20260830231005 | 16 | 319 | 8.0 | 19.3 | 0.00 | 0.00 | 0.00 | 70 | 1021.4 |
| 20260830230505 | 17 | 293 | 4.8 | 22.5 | 0.00 | 0.00 | 0.00 | 68 | 1021.3 |
| 20260830230006 | 17 | 311 | 17.7 | 25.7 | 0.00 | 0.00 | 0.00 | 64 | 1021.3 |
| 20260830230004 | 17 | 311 | 16.1 | 25.7 | 0.00 | 0.00 | 0.00 | 64 | 1006.3 |
| 20260830225504 | 18 | 308 | 16.1 | 20.9 | 0.00 | 0.00 | 0.00 | 60 | 1021.4 |
| 20260830224506 | 18 | 291 | 8.0 | 14.5 | 0.00 | 0.00 | 0.00 | 55 | 1021.2 |
| 20260830224504 | 18 | 291 | 8.0 | 14.5 | 0.00 | 0.00 | 0.00 | 55 | 1006.1 |
| 20260830223504 | 18 | 311 | 9.7 | 25.7 | 0.00 | 0.00 | 0.00 | 53 | 1020.9 |
| 20260830223006 | 18 | 329 | 11.3 | 30.6 | 0.00 | 0.00 | 0.00 | 54 | 1020.9 |
| 20260830223003 | 18 | 329 | 9.7 | 30.6 | 0.00 | 0.00 | 0.00 | 54 | 1005.7 |
| 20260830221504 | 19 | 290 | 20.9 | 38.6 | 0.00 | 0.00 | 0.00 | 48 | 1005.4 |
| 20260830221006 | 20 | 311 | 19.3 | 38.6 | 0.00 | 0.00 | 0.00 | 47 | 1020.7 |
| 20260830220506 | 20 | 301 | 22.5 | 40.2 | 0.00 | 0.00 | 0.00 | 47 | 1020.7 |
| 20260830220008 | 20 | 301 | 22.5 | 46.7 | 0.00 | 0.00 | 0.00 | 46 | 1020.4 |
| 20260830220003 | 20 | 301 | 22.5 | 46.7 | 0.00 | 0.00 | 0.00 | 46 | 1005.1 |
| 20260830215506 | 20 | 319 | 27.4 | 46.7 | 0.00 | 0.00 | 0.00 | 45 | 1020.2 |
| 20260830215006 | 21 | 298 | 24.1 | 41.8 | 0.00 | 0.00 | 0.00 | 44 | 1019.8 |
| 20260830214505 | 23 | 330 | 16.1 | 69.2 | 0.00 | 0.00 | 0.00 | 41 | 1019.8 |
| 20260830214005 | 26 | 319 | 6.4 | 14.5 | 0.00 | 0.00 | 0.00 | 34 | 1019.4 |
| 20260830213505 | 26 | 224 | 3.2 | 12.9 | 0.00 | 0.00 | 0.00 | 34 | 1018.8 |
| 20260830213005 | 26 | 256 | 3.2 | 6.4 | 0.00 | 0.00 | 0.00 | 32 | 1018.8 |
| 20260830212505 | 26 | 256 | 1.6 | 9.7 | 0.00 | 0.00 | 0.00 | 32 | 1018.8 |
| 20260830212005 | 26 | 256 | 1.6 | 9.7 | 0.00 | 0.00 | 0.00 | 33 | 1018.7 |
| 20260830211504 | 26 | 207 | 3.2 | 6.4 | 0.00 | 0.00 | 0.00 | 34 | 1018.6 |
| 20260830211005 | 26 | 254 | 3.2 | 8.0 | 0.00 | 0.00 | 0.00 | 32 | 1018.5 |
| 20260830210505 | 26 | 254 | 3.2 | 12.9 | 0.00 | 0.00 | 0.00 | 33 | 1018.6 |
| 20260830210006 | 26 | 285 | 6.4 | 12.9 | 0.00 | 0.00 | 0.00 | 32 | 1018.5 |
| 20260830210004 | 26 | 285 | 6.4 | 12.9 | 0.00 | 0.00 | 0.00 | 32 | 1003.0 |
| 20260830205505 | 26 | 247 | 4.8 | 9.7 | 0.00 | 0.00 | 0.00 | 33 | 1018.6 |
| 20260830205005 | 26 | 256 | 4.8 | 8.0 | 0.00 | 0.00 | 0.00 | 33 | 1018.8 |
| 20260830204505 | 26 | 273 | 3.2 | 11.3 | 0.00 | 0.00 | 0.00 | 33 | 1018.8 |
| 20260830204503 | 26 | 273 | 3.2 | 11.3 | 0.00 | 0.00 | 0.00 | 33 | 1003.4 |
| 20260830204005 | 26 | 213 | 4.8 | 14.5 | 0.00 | 0.00 | 0.00 | 33 | 1018.8 |
| 20260830203505 | 26 | 199 | 8.0 | 14.5 | 0.00 | 0.00 | 0.00 | 33 | 1018.6 |
| 20260830203009 | 26 | 207 | 4.8 | 11.3 | 0.00 | 0.00 | 0.00 | 31 | 1003.2 |
| 20260830203007 | 26 | 207 | 4.8 | 11.3 | 0.00 | 0.00 | 0.00 | 31 | 1018.6 |
| 20260830202505 | 26 | 227 | 4.8 | 12.9 | 0.00 | 0.00 | 0.00 | 34 | 1018.7 |
| 20260830201504 | 26 | 163 | 8.0 | 17.7 | 0.00 | 0.00 | 0.00 | 33 | 1018.7 |
| 20260830201006 | 26 | 148 | 12.9 | 17.7 | 0.00 | 0.00 | 0.00 | 33 | 1018.6 |
| 20260830200505 | 26 | 164 | 4.8 | 16.1 | 0.00 | 0.00 | 0.00 | 33 | 1018.6 |
| 20260830200006 | 26 | 317 | 8.0 | 16.1 | 0.00 | 0.00 | 0.00 | 31 | 1018.5 |
| 20260830200004 | 26 | 317 | 6.4 | 16.1 | 0.00 | 0.00 | 0.00 | 31 | 1003.1 |
| 20260830194505 | 26 | 300 | 6.4 | 12.9 | 0.00 | 0.00 | 0.00 | 31 | 1018.7 |
| 20260830194503 | 26 | 300 | 4.8 | 12.9 | 0.00 | 0.00 | 0.00 | 31 | 1003.3 |
| 20260830194006 | 26 | 238 | 8.0 | 12.9 | 0.00 | 0.00 | 0.00 | 31 | 1018.8 |
| 20260830193505 | 27 | 290 | 8.0 | 17.7 | 0.00 | 0.00 | 0.00 | 31 | 1018.6 |
| 20260830193006 | 27 | 292 | 9.7 | 17.7 | 0.00 | 0.00 | 0.00 | 29 | 1018.7 |
| 20260830193003 | 27 | 292 | 9.7 | 17.7 | 0.00 | 0.00 | 0.00 | 29 | 1003.2 |
| 20260830192504 | 27 | 272 | 6.4 | 14.5 | 0.00 | 0.00 | 0.00 | 30 | 1018.7 |
| 20260830192005 | 27 | 262 | 6.4 | 17.7 | 0.00 | 0.00 | 0.00 | 30 | 1018.7 |
| 20260830191505 | 27 | 259 | 11.3 | 17.7 | 0.00 | 0.00 | 0.00 | 30 | 1018.8 |
| 20260830191006 | 27 | 144 | 9.7 | 19.3 | 0.00 | 0.00 | 0.00 | 30 | 1018.8 |
| 20260830190012 | 27 | 274 | 6.4 | 16.1 | 0.00 | 0.00 | 0.00 | 29 | 1003.6 |
| 20260830190007 | 27 | 274 | 8.0 | 16.1 | 0.00 | 0.00 | 0.00 | 29 | 1019.1 |
| 20260830185505 | 26 | 267 | 1.6 | 12.9 | 0.00 | 0.00 | 0.00 | 31 | 1019.1 |
| 20260830185006 | 26 | 247 | 3.2 | 12.9 | 0.00 | 0.00 | 0.00 | 32 | 1019.1 |
| 20260830184504 | 26 | 65 | 3.2 | 9.7 | 0.00 | 0.00 | 0.00 | 32 | 1019.0 |
| 20260830184005 | 26 | 329 | 4.8 | 12.9 | 0.00 | 0.00 | 0.00 | 33 | 1019.1 |
| 20260830183006 | 26 | 287 | 3.2 | 17.7 | 0.00 | 0.00 | 0.00 | 35 | 1019.2 |
| 20260830183003 | 26 | 287 | 3.2 | 17.7 | 0.00 | 0.00 | 0.00 | 35 | 1003.6 |
| 20260830182505 | 26 | 304 | 9.7 | 19.3 | 0.00 | 0.00 | 0.00 | 34 | 1019.2 |
| 20260830182006 | 26 | 297 | 9.7 | 22.5 | 0.00 | 0.00 | 0.00 | 35 | 1019.3 |
| 20260830181504 | 26 | 301 | 12.9 | 20.9 | 0.00 | 0.00 | 0.00 | 36 | 1019.4 |
| 20260830180505 | 26 | 256 | 8.0 | 14.5 | 0.00 | 0.00 | 0.00 | 34 | 1019.5 |
| 20260830180008 | 25 | 257 | 4.8 | 14.5 | 0.00 | 0.00 | 0.00 | 35 | 1003.9 |
| 20260830180006 | 25 | 257 | 6.4 | 14.5 | 0.00 | 0.00 | 0.00 | 35 | 1019.5 |
| 20260830174505 | 25 | 287 | 8.0 | 25.7 | 0.00 | 0.00 | 0.00 | 36 | 1019.7 |
| 20260830174503 | 25 | 287 | 6.4 | 25.7 | 0.00 | 0.00 | 0.00 | 36 | 1004.2 |
| 20260830174007 | 25 | 279 | 8.0 | 25.7 | 0.00 | 0.00 | 0.00 | 39 | 1019.8 |
| 20260830173505 | 25 | 279 | 9.7 | 17.7 | 0.00 | 0.00 | 0.00 | 37 | 1020.0 |
| 20260830173006 | 25 | 201 | 6.4 | 19.3 | 0.00 | 0.00 | 0.00 | 37 | 1004.5 |
| 20260830172504 | 25 | 294 | 6.4 | 19.3 | 0.00 | 0.00 | 0.00 | 40 | 1020.0 |
| 20260830172005 | 24 | 246 | 6.4 | 25.7 | 0.00 | 0.00 | 0.00 | 40 | 1020.0 |
| 20260830171506 | 24 | 306 | 11.3 | 29.0 | 0.00 | 0.00 | 0.00 | 39 | 1020.1 |
| 20260830171504 | 24 | 306 | 11.3 | 29.0 | 0.00 | 0.00 | 0.00 | 39 | 1004.6 |
| 20260830171005 | 24 | 310 | 17.7 | 29.0 | 0.00 | 0.00 | 0.00 | 40 | 1020.1 |
| 20260830170506 | 25 | 292 | 9.7 | 22.5 | 0.00 | 0.00 | 0.00 | 39 | 1020.3 |
| 20260830170007 | 24 | 289 | 8.0 | 20.9 | 0.00 | 0.00 | 0.00 | 41 | 1020.2 |
| 20260830170003 | 24 | 289 | 6.4 | 20.9 | 0.00 | 0.00 | 0.00 | 41 | 1004.6 |
| 20260830165505 | 24 | 299 | 11.3 | 20.9 | 0.00 | 0.00 | 0.00 | 38 | 1020.2 |
| 20260830165006 | 24 | 282 | 8.0 | 16.1 | 0.00 | 0.00 | 0.00 | 41 | 1020.2 |
| 20260830164508 | 23 | 308 | 6.4 | 16.1 | 0.00 | 0.00 | 0.00 | 42 | 1004.6 |
| 20260830164505 | 23 | 308 | 6.4 | 16.1 | 0.00 | 0.00 | 0.00 | 42 | 1020.1 |
| 20260830164006 | 23 | 248 | 8.0 | 12.9 | 0.00 | 0.00 | 0.00 | 42 | 1020.0 |
| 20260830163504 | 23 | 246 | 6.4 | 14.5 | 0.00 | 0.00 | 0.00 | 45 | 1020.0 |
| 20260830163007 | 22 | 250 | 6.4 | 14.5 | 0.00 | 0.00 | 0.00 | 46 | 1020.0 |
| 20260830163003 | 22 | 250 | 4.8 | 14.5 | 0.00 | 0.00 | 0.00 | 46 | 1004.5 |
| 20260830162505 | 21 | 266 | 8.0 | 14.5 | 0.00 | 0.00 | 0.00 | 47 | 1020.1 |
| 20260830162006 | 21 | 231 | 3.2 | 9.7 | 0.00 | 0.00 | 0.00 | 49 | 1020.1 |
| 20260830161504 | 21 | 224 | 1.6 | 8.0 | 0.00 | 0.00 | 0.00 | 52 | 1004.7 |
| 20260830161006 | 21 | 262 | 1.6 | 11.3 | 0.00 | 0.00 | 0.00 | 52 | 1020.1 |
| 20260830160506 | 20 | 229 | 4.8 | 11.3 | 0.00 | 0.00 | 0.00 | 51 | 1020.1 |
| 20260830160011 | 20 | 243 | 4.8 | 16.1 | 0.00 | 0.00 | 0.00 | 53 | 1004.5 |
| 20260830160007 | 20 | 243 | 4.8 | 16.1 | 0.00 | 0.00 | 0.00 | 53 | 1020.1 |
| 20260830155504 | 20 | 276 | 8.0 | 16.1 | 0.00 | 0.00 | 0.00 | 51 | 1020.0 |
| 20260830155007 | 20 | 229 | 8.0 | 14.5 | 0.00 | 0.00 | 0.00 | 53 | 1019.9 |
| 20260830154506 | 20 | 212 | 8.0 | 14.5 | 0.00 | 0.00 | 0.00 | 53 | 1019.8 |
| 20260830153006 | 20 | 231 | 8.0 | 14.5 | 0.00 | 0.00 | 0.00 | 56 | 1019.7 |
| 20260830153003 | 20 | 231 | 8.0 | 14.5 | 0.00 | 0.00 | 0.00 | 56 | 1004.1 |
| 20260830152506 | 20 | 238 | 6.4 | 11.3 | 0.00 | 0.00 | 0.00 | 56 | 1019.7 |
| 20260830152006 | 19 | 226 | 6.4 | 14.5 | 0.00 | 0.00 | 0.00 | 56 | 1019.7 |
| 20260830151505 | 19 | 239 | 8.0 | 14.5 | 0.00 | 0.00 | 0.00 | 55 | 1019.8 |
| 20260830151503 | 19 | 239 | 6.4 | 14.5 | 0.00 | 0.00 | 0.00 | 55 | 1004.2 |
| 20260830151006 | 19 | 245 | 6.4 | 12.9 | 0.00 | 0.00 | 0.00 | 58 | 1019.6 |
| 20260830150504 | 18 | 185 | 6.4 | 11.3 | 0.00 | 0.00 | 0.00 | 59 | 1019.8 |
| 20260830150006 | 18 | 281 | 4.8 | 14.5 | 0.00 | 0.00 | 0.00 | 59 | 1019.6 |
| 20260830150003 | 18 | 281 | 4.8 | 14.5 | 0.00 | 0.00 | 0.00 | 59 | 1004.1 |
| 20260830145504 | 18 | 214 | 6.4 | 14.5 | 0.00 | 0.00 | 0.00 | 59 | 1019.6 |
| 20260830145006 | 18 | 214 | 4.8 | 14.5 | 0.00 | 0.00 | 0.00 | 58 | 1019.7 |
| 20260830144505 | 18 | 247 | 8.0 | 12.9 | 0.00 | 0.00 | 0.00 | 58 | 1019.6 |
| 20260830144503 | 18 | 247 | 6.4 | 12.9 | 0.00 | 0.00 | 0.00 | 58 | 1004.1 |
| 20260830144005 | 18 | 236 | 8.0 | 16.1 | 0.00 | 0.00 | 0.00 | 58 | 1019.7 |
| 20260830143505 | 18 | 221 | 8.0 | 16.1 | 0.00 | 0.00 | 0.00 | 57 | 1019.6 |
| 20260830143006 | 18 | 227 | 8.0 | 17.7 | 0.00 | 0.00 | 0.00 | 56 | 1019.6 |
| 20260830143004 | 18 | 227 | 6.4 | 17.7 | 0.00 | 0.00 | 0.00 | 56 | 1004.1 |
| 20260830142504 | 18 | 240 | 8.0 | 17.7 | 0.00 | 0.00 | 0.00 | 56 | 1019.6 |
| 20260830142005 | 18 | 257 | 8.0 | 14.5 | 0.00 | 0.00 | 0.00 | 57 | 1019.7 |
| 20260830141505 | 18 | 220 | 6.4 | 16.1 | 0.00 | 0.00 | 0.00 | 58 | 1019.5 |
| 20260830141502 | 18 | 220 | 4.8 | 16.1 | 0.00 | 0.00 | 0.00 | 58 | 1004.0 |
| 20260830140505 | 18 | 174 | 4.8 | 11.3 | 0.00 | 0.00 | 0.00 | 58 | 1019.4 |
| 20260830140007 | 18 | 188 | 4.8 | 9.7 | 0.00 | 0.00 | 0.00 | 58 | 1019.4 |
| 20260830140003 | 18 | 188 | 4.8 | 9.7 | 0.00 | 0.00 | 0.00 | 58 | 1003.8 |
| 20260830135005 | 17 | 205 | 6.4 | 17.7 | 0.00 | 0.00 | 0.00 | 58 | 1019.4 |
| 20260830134509 | 17 | 165 | 6.4 | 17.7 | 0.00 | 0.00 | 0.00 | 59 | 1003.9 |
| 20260830134005 | 17 | 191 | 6.4 | 16.1 | 0.00 | 0.00 | 0.00 | 59 | 1019.4 |
| 20260830133504 | 17 | 223 | 6.4 | 12.9 | 0.00 | 0.00 | 0.00 | 59 | 1019.5 |
| 20260830133006 | 17 | 243 | 6.4 | 11.3 | 0.00 | 0.00 | 0.00 | 59 | 1019.4 |
| 20260830132005 | 17 | 192 | 6.4 | 11.3 | 0.00 | 0.00 | 0.00 | 60 | 1019.3 |
| 20260830131503 | 16 | 194 | 3.2 | 12.9 | 0.00 | 0.00 | 0.00 | 61 | 1003.9 |
| 20260830131006 | 16 | 219 | 6.4 | 12.9 | 0.00 | 0.00 | 0.00 | 61 | 1019.2 |
| 20260830130505 | 16 | 175 | 8.0 | 12.9 | 0.00 | 0.00 | 0.00 | 62 | 1019.1 |
| 20260830130006 | 16 | 209 | 4.8 | 11.3 | 0.00 | 0.00 | 0.00 | 63 | 1019.0 |
| 20260830130003 | 16 | 209 | 4.8 | 11.3 | 0.00 | 0.00 | 0.00 | 63 | 1003.6 |
| 20260830125005 | 15 | 202 | 3.2 | 4.8 | 0.00 | 0.00 | 0.00 | 65 | 1018.8 |
| 20260830124507 | 15 | 202 | 0.0 | 4.8 | 0.00 | 0.00 | 0.00 | 64 | 1003.5 |
| 20260830124505 | 15 | 202 | 1.6 | 4.8 | 0.00 | 0.00 | 0.00 | 64 | 1018.9 |
| 20260830124006 | 15 | 202 | 1.6 | 3.2 | 0.00 | 0.00 | 0.00 | 63 | 1018.9 |
| 20260830123505 | 15 | 202 | 1.6 | 4.8 | 0.00 | 0.00 | 0.00 | 62 | 1018.8 |
| 20260830123005 | 16 | 202 | 0.0 | 6.4 | 0.00 | 0.00 | 0.00 | 61 | 1018.8 |
| 20260830123003 | 16 | 202 | 0.0 | 6.4 | 0.00 | 0.00 | 0.00 | 61 | 1003.5 |
| 20260830122505 | 16 | 202 | 4.8 | 6.4 | 0.00 | 0.00 | 0.00 | 61 | 1018.9 |
| 20260830122006 | 15 | 202 | 3.2 | 6.4 | 0.00 | 0.00 | 0.00 | 61 | 1018.9 |
| 20260830121504 | 15 | 202 | 1.6 | 3.2 | 0.00 | 0.00 | 0.00 | 61 | 1003.5 |
| 20260830121005 | 16 | 202 | 0.0 | 4.8 | 0.00 | 0.00 | 0.00 | 61 | 1018.8 |
| 20260830120006 | 15 | 202 | 3.2 | 6.4 | 0.00 | 0.00 | 0.00 | 62 | 1018.7 |
| 20260830120004 | 15 | 202 | 3.2 | 6.4 | 0.00 | 0.00 | 0.00 | 62 | 1003.4 |
| 20260830115505 | 15 | 202 | 1.6 | 3.2 | 0.00 | 0.00 | 0.00 | 63 | 1018.6 |
| 20260830115005 | 15 | 202 | 1.6 | 6.4 | 0.00 | 0.00 | 0.00 | 63 | 1018.7 |
| 20260830114504 | 15 | 202 | 3.2 | 6.4 | 0.00 | 0.00 | 0.00 | 62 | 1018.6 |
| 20260830114033 | 16 | 202 | 1.6 | 8.0 | 0.00 | 0.00 | 0.00 | 60 | 1018.6 |
| 20260830113008 | 17 | 161 | 3.2 | 11.3 | 0.00 | 0.00 | 0.00 | 56 | 1003.3 |
| 20260830112505 | 17 | 167 | 8.0 | 14.5 | 0.00 | 0.00 | 0.00 | 56 | 1018.7 |
| 20260830112007 | 17 | 176 | 9.7 | 14.5 | 0.00 | 0.00 | 0.00 | 56 | 1018.7 |
| 20260830111505 | 17 | 187 | 9.7 | 11.3 | 0.00 | 0.00 | 0.00 | 56 | 1018.6 |
| 20260830111005 | 17 | 181 | 6.4 | 9.7 | 0.00 | 0.00 | 0.00 | 56 | 1018.6 |
| 20260830110505 | 17 | 181 | 6.4 | 9.7 | 0.00 | 0.00 | 0.00 | 56 | 1018.6 |
| 20260830110007 | 17 | 173 | 6.4 | 11.3 | 0.00 | 0.00 | 0.00 | 56 | 1018.6 |
| 20260830110003 | 17 | 173 | 4.8 | 11.3 | 0.00 | 0.00 | 0.00 | 56 | 1003.2 |
| 20260830105006 | 17 | 173 | 9.7 | 14.5 | 0.00 | 0.00 | 0.00 | 55 | 1018.4 |
| 20260830104505 | 17 | 180 | 9.7 | 14.5 | 0.00 | 0.00 | 0.00 | 55 | 1018.4 |
| 20260830104503 | 17 | 166 | 9.7 | 14.5 | 0.00 | 0.00 | 0.00 | 55 | 1002.9 |
| 20260830103505 | 17 | 168 | 8.0 | 12.9 | 0.00 | 0.00 | 0.00 | 55 | 1018.4 |
| 20260830103006 | 17 | 190 | 9.7 | 17.7 | 0.00 | 0.00 | 0.00 | 55 | 1018.5 |
| 20260830103004 | 17 | 190 | 8.0 | 17.7 | 0.00 | 0.00 | 0.00 | 55 | 1003.0 |
| 20260830102506 | 17 | 161 | 11.3 | 17.7 | 0.00 | 0.00 | 0.00 | 54 | 1018.5 |
| 20260830102005 | 17 | 171 | 11.3 | 16.1 | 0.00 | 0.00 | 0.00 | 54 | 1018.6 |
| 20260830101505 | 17 | 160 | 11.3 | 14.5 | 0.00 | 0.00 | 0.00 | 55 | 1018.5 |
| 20260830101503 | 17 | 160 | 9.7 | 14.5 | 0.00 | 0.00 | 0.00 | 55 | 1003.0 |
| 20260830101006 | 17 | 159 | 9.7 | 14.5 | 0.00 | 0.00 | 0.00 | 55 | 1018.5 |
| 20260830100504 | 17 | 153 | 9.7 | 16.1 | 0.00 | 0.00 | 0.00 | 55 | 1018.4 |
| 20260830100006 | 17 | 161 | 11.3 | 16.1 | 0.00 | 0.00 | 0.00 | 55 | 1018.5 |
| 20260830094506 | 17 | 181 | 6.4 | 11.3 | 0.00 | 0.00 | 0.00 | 56 | 1018.5 |
| 20260830094503 | 17 | 181 | 6.4 | 11.3 | 0.00 | 0.00 | 0.00 | 56 | 1002.9 |
| 20260830094006 | 17 | 169 | 8.0 | 11.3 | 0.00 | 0.00 | 0.00 | 56 | 1018.5 |
| 20260830093505 | 17 | 161 | 6.4 | 9.7 | 0.00 | 0.00 | 0.00 | 56 | 1018.6 |
| 20260830093006 | 17 | 178 | 6.4 | 9.7 | 0.00 | 0.00 | 0.00 | 57 | 1018.6 |
| 20260830093003 | 17 | 178 | 4.8 | 9.7 | 0.00 | 0.00 | 0.00 | 57 | 1003.0 |
| 20260830092505 | 17 | 178 | 6.4 | 9.7 | 0.00 | 0.00 | 0.00 | 57 | 1018.6 |
| 20260830091506 | 17 | 174 | 3.2 | 11.3 | 0.00 | 0.00 | 0.00 | 59 | 1018.8 |
| 20260830091503 | 17 | 174 | 3.2 | 11.3 | 0.00 | 0.00 | 0.00 | 59 | 1003.2 |
| 20260830090009 | 16 | 219 | 1.6 | 6.4 | 0.00 | 0.00 | 0.00 | 65 | 1002.9 |
| 20260830090006 | 16 | 219 | 1.6 | 6.4 | 0.00 | 0.00 | 0.00 | 65 | 1018.6 |
| 20260830085006 | 16 | 178 | 3.2 | 8.0 | 0.00 | 0.00 | 0.00 | 65 | 1018.6 |
| 20260830084505 | 16 | 227 | 4.8 | 8.0 | 0.00 | 0.00 | 0.00 | 65 | 1018.5 |
| 20260830084502 | 16 | 227 | 4.8 | 8.0 | 0.00 | 0.00 | 0.00 | 65 | 1002.9 |
| 20260830084005 | 15 | 227 | 6.4 | 9.7 | 0.00 | 0.00 | 0.00 | 66 | 1018.5 |
| 20260830083504 | 15 | 162 | 6.4 | 8.0 | 0.00 | 0.00 | 0.00 | 69 | 1018.5 |
| 20260830083005 | 14 | 227 | 3.2 | 4.8 | 0.00 | 0.00 | 0.00 | 71 | 1018.6 |
| 20260830083003 | 14 | 227 | 1.6 | 4.8 | 0.00 | 0.00 | 0.00 | 71 | 1003.0 |
| 20260830082504 | 14 | 227 | 0.0 | 1.6 | 0.00 | 0.00 | 0.00 | 73 | 1018.5 |
| 20260830082005 | 14 | 227 | 0.0 | 1.6 | 0.00 | 0.00 | 0.00 | 72 | 1018.4 |
| 20260830081504 | 14 | 227 | 0.0 | 1.6 | 0.00 | 0.00 | 0.00 | 72 | 1018.4 |
| 20260830081502 | 14 | 227 | 0.0 | 1.6 | 0.00 | 0.00 | 0.00 | 72 | 1002.8 |
| 20260830080504 | 15 | 227 | 0.0 | 3.2 | 0.00 | 0.00 | 0.00 | 72 | 1018.5 |
| 20260830080003 | 15 | 227 | 0.0 | 4.8 | 0.00 | 0.00 | 0.00 | 72 | 1003.0 |
| 20260830075504 | 15 | 227 | 3.2 | 4.8 | 0.00 | 0.00 | 0.00 | 71 | 1018.6 |
| 20260830075006 | 15 | 227 | 1.6 | 6.4 | 0.00 | 0.00 | 0.00 | 72 | 1018.6 |
| 20260830074505 | 15 | 227 | 4.8 | 6.4 | 0.00 | 0.00 | 0.00 | 71 | 1018.7 |
| 20260830074503 | 15 | 227 | 3.2 | 6.4 | 0.00 | 0.00 | 0.00 | 71 | 1003.2 |
| 20260830074006 | 15 | 227 | 3.2 | 6.4 | 0.00 | 0.00 | 0.00 | 71 | 1018.8 |
| 20260830073505 | 15 | 227 | 4.8 | 8.0 | 0.00 | 0.00 | 0.00 | 71 | 1018.8 |
| 20260830073006 | 15 | 227 | 3.2 | 8.0 | 0.00 | 0.00 | 0.00 | 72 | 1018.8 |
| 20260830073003 | 15 | 227 | 3.2 | 8.0 | 0.00 | 0.00 | 0.00 | 72 | 1003.2 |
| 20260830072504 | 15 | 227 | 4.8 | 6.4 | 0.00 | 0.00 | 0.00 | 72 | 1018.9 |
| 20260830071504 | 14 | 227 | 1.6 | 4.8 | 0.00 | 0.00 | 0.00 | 72 | 1003.4 |
| 20260830071001 | 14 | 227 | 1.6 | 4.8 | 0.00 | 0.00 | 0.00 | 72 | 1019.2 |
| 20260830070505 | 14 | 227 | 0.0 | 4.8 | 0.00 | 0.00 | 0.00 | 72 | 1019.3 |
| 20260830070008 | 14 | 227 | 1.6 | 4.8 | 0.00 | 0.00 | 0.00 | 72 | 1019.4 |
| 20260830070004 | 14 | 227 | 1.6 | 4.8 | 0.00 | 0.00 | 0.00 | 72 | 1003.8 |
| 20260830065007 | 14 | 227 | 4.8 | 8.0 | 0.00 | 0.00 | 0.00 | 72 | 1019.6 |
| 20260830064507 | 14 | 227 | 4.8 | 8.0 | 0.00 | 0.00 | 0.00 | 71 | 1004.0 |
| 20260830064505 | 14 | 227 | 6.4 | 8.0 | 0.00 | 0.00 | 0.00 | 71 | 1019.7 |
| 20260830064007 | 14 | 227 | 3.2 | 6.4 | 0.00 | 0.00 | 0.00 | 72 | 1019.7 |
| 20260830063504 | 14 | 227 | 3.2 | 4.8 | 0.00 | 0.00 | 0.00 | 73 | 1019.8 |
| 20260830063007 | 14 | 227 | 3.2 | 6.4 | 0.00 | 0.00 | 0.00 | 73 | 1019.7 |
| 20260830063003 | 14 | 227 | 1.6 | 6.4 | 0.00 | 0.00 | 0.00 | 73 | 1004.1 |
| 20260830062505 | 14 | 227 | 4.8 | 6.4 | 0.00 | 0.00 | 0.00 | 73 | 1019.8 |
| 20260830061505 | 14 | 227 | 0.0 | 6.4 | 0.00 | 0.00 | 0.00 | 74 | 1020.0 |
| 20260830061502 | 14 | 227 | 0.0 | 6.4 | 0.00 | 0.00 | 0.00 | 74 | 1004.4 |
| 20260830061006 | 14 | 227 | 4.8 | 8.0 | 0.00 | 0.00 | 0.00 | 73 | 1019.9 |
| 20260830060505 | 13 | 227 | 3.2 | 9.7 | 0.00 | 0.00 | 0.00 | 75 | 1019.9 |
| 20260830060007 | 13 | 227 | 3.2 | 9.7 | 0.00 | 0.00 | 0.00 | 76 | 1020.0 |
| 20260830055006 | 13 | 227 | 4.8 | 9.7 | 0.00 | 0.00 | 0.00 | 77 | 1020.1 |
| 20260830054511 | 13 | 37 | 3.2 | 6.4 | 0.00 | 0.00 | 0.00 | 77 | 1004.6 |
| 20260830054506 | 13 | 37 | 3.2 | 6.4 | 0.00 | 0.00 | 0.00 | 77 | 1020.2 |
| 20260830054006 | 13 | 37 | 3.2 | 6.4 | 0.00 | 0.00 | 0.00 | 77 | 1020.2 |
| 20260830053506 | 13 | 37 | 4.8 | 6.4 | 0.00 | 0.00 | 0.00 | 77 | 1020.3 |
| 20260830053006 | 13 | 37 | 3.2 | 8.0 | 0.00 | 0.00 | 0.00 | 77 | 1020.3 |
| 20260830053003 | 13 | 37 | 3.2 | 8.0 | 0.00 | 0.00 | 0.00 | 77 | 1004.6 |
| 20260830052006 | 13 | 37 | 3.2 | 4.8 | 0.00 | 0.00 | 0.00 | 76 | 1020.3 |
| 20260830051505 | 13 | 37 | 3.2 | 4.8 | 0.00 | 0.00 | 0.00 | 76 | 1020.3 |
| 20260830051503 | 13 | 37 | 3.2 | 4.8 | 0.00 | 0.00 | 0.00 | 76 | 1004.6 |